VK6USB Weather Reports


Display with metric or nautical units.
time (UTC)temp
F
wind
direction
speed
MPH
gust
MPH
rain 1hr
in
rain 24hr
in
rain mn
in
humidity
%
barometer
mb
20200128133335 71 282 3.0 10.0 0.00 0.00 0.00 26 1002.3
20200128132436 72 249 3.0 11.0 0.00 0.00 0.00 22 1002.0
20200128131535 72 244 3.0 11.0 0.00 0.00 0.00 21 1002.1
20200128130635 72 260 4.0 9.0 0.00 0.00 0.00 19 1002.2
20200128125735 72 256 3.0 9.0 0.00 0.00 0.00 18 1002.2
20200128124835 72 285 3.0 12.0 0.00 0.00 0.00 17 1002.1
20200128123935 73 258 4.0 11.0 0.00 0.00 0.00 13 1002.1
20200128123035 73 283 5.0 11.0 0.00 0.00 0.00 10 1002.1
20200128122135 74 250 2.0 8.0 0.00 0.00 0.00 10 1001.8
20200128121235 74 257 2.0 11.0 0.00 0.00 0.00 10 1001.9
20200128120335 74 268 3.0 11.0 0.00 0.00 0.00 10 1001.8
20200128115435 75 259 2.0 8.0 0.00 0.00 0.00 10 1001.6
20200128114535 75 268 2.0 11.0 0.00 0.00 0.00 10 1001.7
20200128113635 76 273 4.0 10.0 0.00 0.00 0.00 10 1001.8
20200128112735 76 263 3.0 12.0 0.00 0.00 0.00 10 1001.7
20200128111836 77 250 7.0 13.0 0.00 0.00 0.00 10 1001.7
20200128110936 78 235 2.0 14.0 0.00 0.00 0.00 10 1001.7
20200128110036 78 255 4.0 8.0 0.00 0.00 0.00 10 1001.6
20200128105135 79 262 3.0 14.0 0.00 0.00 0.00 10 1001.6
20200128104235 80 250 4.0 11.0 0.00 0.00 0.00 10 1001.7
20200128103335 81 270 2.0 10.0 0.00 0.00 0.00 10 1001.5
20200128102435 81 281 4.0 14.0 0.00 0.00 0.00 10 1001.2
20200128101535 82 260 4.0 14.0 0.00 0.00 0.00 10 1001.2
20200128100635 82 262 4.0 12.0 0.00 0.00 0.00 10 1001.1
20200128095735 83 259 4.0 12.0 0.00 0.00 0.00 10 1001.1
20200128094836 84 257 4.0 11.0 0.00 0.00 0.00 10 1000.9
20200128093935 86 292 4.0 12.0 0.00 0.00 0.00 10 1000.8
20200128093035 86 290 3.0 13.0 0.00 0.00 0.00 10 1000.7
20200128092136 87 293 6.0 11.0 0.00 0.00 0.00 10 1000.6
20200128091236 87 283 3.0 11.0 0.00 0.00 0.00 10 1000.5
20200128090335 87 257 3.0 13.0 0.00 0.00 0.00 10 1000.5
20200128085435 88 257 6.0 12.0 0.00 0.00 0.00 10 1000.3
20200128084535 89 230 5.0 12.0 0.00 0.00 0.00 10 1000.2
20200128083635 89 226 4.0 15.0 0.00 0.00 0.00 10 1000.1
20200128082735 89 260 5.0 14.0 0.00 0.00 0.00 10 1000.1
20200128081835 90 268 4.0 14.0 0.00 0.00 0.00 10 1000.1
20200128080935 90 293 4.0 14.0 0.00 0.00 0.00 10 1000.2
20200128080036 91 290 3.0 13.0 0.00 0.00 0.00 10 1000.3
20200128075135 92 273 4.0 13.0 0.00 0.00 0.00 10 1000.1
20200128074235 92 260 3.0 15.0 0.00 0.00 0.00 10 1000.2
20200128073335 92 259 3.0 15.0 0.00 0.00 0.00 10 1000.3
20200128072435 92 281 3.0 15.0 0.00 0.00 0.00 10 1000.3
20200128071535 92 281 5.0 15.0 0.00 0.00 0.00 10 1000.2
20200128070635 93 274 4.0 12.0 0.00 0.00 0.00 10 1000.3
20200128065735 94 277 4.0 13.0 0.00 0.00 0.00 10 1000.5
20200128064835 94 241 6.0 11.0 0.00 0.00 0.00 10 1000.4
20200128063935 95 280 5.0 15.0 0.00 0.00 0.00 10 1000.5
20200128063035 96 242 4.0 15.0 0.00 0.00 0.00 10 1000.5
20200128062135 96 234 4.0 11.0 0.00 0.00 0.00 10 1000.5
20200128061235 96 237 4.0 14.0 0.00 0.00 0.00 10 1000.5
20200128060335 97 274 2.0 11.0 0.00 0.00 0.00 10 1000.6
20200128055435 97 248 2.0 10.0 0.00 0.00 0.00 10 1000.7
20200128054535 96 258 4.0 11.0 0.00 0.00 0.00 10 1000.5
20200128053635 96 276 4.0 14.0 0.00 0.00 0.00 10 1000.6
20200128052735 97 238 4.0 8.0 0.00 0.00 0.00 10 1000.9
20200128051836 95 274 3.0 13.0 0.00 0.00 0.00 10 1000.9
20200128050935 95 259 7.0 11.0 0.00 0.00 0.00 10 1000.8
20200128050035 96 251 3.0 11.0 0.00 0.00 0.00 10 1001.0
20200128045135 96 248 3.0 11.0 0.00 0.00 0.00 10 1000.9
20200128044235 96 274 4.0 10.0 0.00 0.00 0.00 10 1001.1
20200128043335 95 287 3.0 10.0 0.00 0.00 0.00 10 1001.0
20200128042435 95 283 3.0 11.0 0.00 0.00 0.00 10 1001.0
20200128041535 95 317 3.0 11.0 0.00 0.00 0.00 10 1001.2
20200128040635 95 282 4.0 14.0 0.00 0.00 0.00 10 1001.3
20200128035735 96 280 2.0 14.0 0.00 0.00 0.00 10 1001.2
20200128034835 96 284 3.0 11.0 0.00 0.00 0.00 10 1001.2
20200128033935 97 280 3.0 11.0 0.00 0.00 0.00 10 1001.3
20200128033035 98 294 2.0 10.0 0.00 0.00 0.00 10 1001.5
20200128032135 98 295 2.0 10.0 0.00 0.00 0.00 10 1001.4
20200128031235 98 290 6.0 10.0 0.00 0.00 0.00 10 1001.4
20200128030335 98 284 1.0 11.0 0.00 0.00 0.00 10 1001.2
20200128025435 98 255 3.0 9.0 0.00 0.00 0.00 10 1001.6
20200128024535 98 306 2.0 9.0 0.00 0.00 0.00 10 1001.5
20200128023635 97 271 0.0 8.0 0.00 0.00 0.00 10 1001.7
20200128022735 98 282 2.0 6.0 0.00 0.00 0.00 10 1001.8
20200128021835 97 241 2.0 8.0 0.00 0.00 0.00 10 1001.9
20200128020936 96 201 1.0 8.0 0.00 0.00 0.00 10 1001.9
20200128020035 95 208 1.0 8.0 0.00 0.00 0.00 10 1002.0
20200128015135 95 246 0.0 8.0 0.00 0.00 0.00 10 1002.1
20200128014235 95 198 2.0 5.0 0.00 0.00 0.00 10 1002.1
20200128013335 94 215 0.0 6.0 0.00 0.00 0.00 10 1002.2
20200128012436 94 195 0.0 7.0 0.00 0.00 0.00 10 1002.1
20200128011537 94 262 1.0 4.0 0.00 0.00 0.00 10 1002.1
20200128010635 94 200 2.0 5.0 0.00 0.00 0.00 10 1002.3
20200128005735 94 214 2.0 4.0 0.00 0.00 0.00 10 1002.3
20200128004835 93 198 2.0 6.0 0.00 0.00 0.00 10 1002.3
20200128003935 92 111 2.0 4.0 0.00 0.00 0.00 10 1002.3
20200128003035 92 164 2.0 4.0 0.00 0.00 0.00 10 1002.4
20200128002135 92 302 0.0 2.0 0.00 0.00 0.00 10 1002.5
20200128001235 91 186 0.0 4.0 0.00 0.00 0.00 10 1002.5
20200128000335 91 128 2.0 3.0 0.00 0.00 0.00 10 1002.3
20200127235436 92 165 1.0 4.0 0.00 0.00 0.00 10 1002.6
20200127234535 92 241 0.0 2.0 0.00 0.00 0.00 10 1002.6
20200127233635 92 308 0.0 2.0 0.00 0.00 0.00 10 1002.6
20200127232735 92 321 0.0 1.0 0.00 0.00 0.00 10 1002.6
20200127231835 90 184 0.0 2.0 0.00 0.00 0.00 10 1002.4
20200127230935 89 104 0.0 1.0 0.00 0.00 0.00 10 1002.6
20200127230035 88 144 0.0 2.0 0.00 0.00 0.00 10 1002.6
20200127225135 87 0 0.0 0.0 0.00 0.00 0.00 10 1002.4
20200127224235 84 0 0.0 0.0 0.00 0.00 0.00 10 1002.5
20200127223335 83 0 0.0 0.0 0.00 0.00 0.00 10 1002.4
20200127222435 81 0 0.0 0.0 0.00 0.00 0.00 10 1002.3
20200127221535 78 0 0.0 0.0 0.00 0.00 0.00 10 1002.4
20200127220635 75 0 0.0 0.0 0.00 0.00 0.00 10 1002.4
20200127215736 73 345 0.0 2.0 0.00 0.00 0.00 10 1002.2
20200127214835 73 1 0.0 2.0 0.00 0.00 0.00 10 1002.2
20200127213935 73 230 0.0 2.0 0.00 0.00 0.00 10 1002.1
20200127213035 72 181 1.0 2.0 0.00 0.00 0.00 10 1001.9
20200127212136 72 0 0.0 0.0 0.00 0.00 0.00 10 1001.9
20200127211235 73 0 0.0 0.0 0.00 0.00 0.00 10 1001.7
20200127210335 74 0 0.0 0.0 0.00 0.00 0.00 10 1001.6
20200127205435 74 255 0.0 2.0 0.00 0.00 0.00 10 1001.6
20200127204535 74 213 0.0 2.0 0.00 0.00 0.00 10 1001.4
20200127203635 74 285 0.0 2.0 0.00 0.00 0.00 10 1001.5
20200127202735 74 208 0.0 2.0 0.00 0.00 0.00 10 1001.2
20200127201835 75 261 0.0 2.0 0.00 0.00 0.00 10 1001.3
20200127200935 75 252 1.0 2.0 0.00 0.00 0.00 10 1001.4
20200127200035 75 264 0.0 2.0 0.00 0.00 0.00 10 1001.0
20200127195135 75 292 0.0 3.0 0.00 0.00 0.00 10 1001.2
20200127194235 75 337 1.0 3.0 0.00 0.00 0.00 10 1001.1
20200127193335 75 343 0.0 2.0 0.00 0.00 0.00 10 1001.0
20200127192435 75 335 0.0 3.0 0.00 0.00 0.00 10 1001.1
20200127191535 75 328 0.0 3.0 0.00 0.00 0.00 10 1001.0
20200127190635 75 320 0.0 2.0 0.00 0.00 0.00 10 1001.1
20200127185735 75 321 1.0 2.0 0.00 0.00 0.00 10 1001.2
20200127184835 76 335 1.0 2.0 0.00 0.00 0.00 10 1001.2
20200127183935 76 45 0.0 1.0 0.00 0.00 0.00 10 1001.2
20200127183035 75 10 0.0 1.0 0.00 0.00 0.00 10 1001.3
20200127182135 75 270 0.0 2.0 0.00 0.00 0.00 10 1001.3
20200127181235 75 314 0.0 2.0 0.00 0.00 0.00 10 1001.3
20200127180335 75 0 0.0 0.0 0.00 0.00 0.00 10 1001.5
20200127175435 76 0 0.0 0.0 0.00 0.00 0.00 10 1001.4
20200127174535 76 0 0.0 0.0 0.00 0.00 0.00 10 1001.4
20200127173635 77 0 0.0 0.0 0.00 0.00 0.00 10 1001.6
20200127172735 78 235 0.0 2.0 0.00 0.00 0.00 10 1001.5
20200127171835 78 268 0.0 2.0 0.00 0.00 0.00 10 1001.5
20200127170935 77 251 0.0 2.0 0.00 0.00 0.00 10 1001.6
20200127170035 78 257 0.0 3.0 0.00 0.00 0.00 10 1001.6
20200127165135 78 254 0.0 2.0 0.00 0.00 0.00 10 1001.8
20200127164235 78 270 0.0 2.0 0.00 0.00 0.00 10 1001.8
20200127163335 78 264 0.0 2.0 0.00 0.00 0.00 10 1001.9
20200127162435 78 255 0.0 2.0 0.00 0.00 0.00 10 1001.9
20200127161535 78 221 0.0 2.0 0.00 0.00 0.00 10 1001.9
20200127160635 78 243 0.0 2.0 0.00 0.00 0.00 10 1001.9
20200127155736 78 228 0.0 2.0 0.00 0.00 0.00 10 1002.0
20200127154835 78 237 0.0 2.0 0.00 0.00 0.00 10 1002.1
20200127153935 78 242 1.0 2.0 0.00 0.00 0.00 10 1002.3
20200127153035 78 242 0.0 2.0 0.00 0.00 0.00 10 1002.6
20200127151235 80 161 0.0 1.0 0.00 0.00 0.00 10 1002.5
20200127150335 80 222 0.0 2.0 0.00 0.00 0.00 10 1002.7
20200127145435 81 225 1.0 2.0 0.00 0.00 0.00 10 1002.8
20200127144535 82 186 0.0 2.0 0.00 0.00 0.00 10 1002.9
20200127143635 83 194 1.0 7.0 0.00 0.00 0.00 10 1003.0
20200127142735 83 205 2.0 6.0 0.00 0.00 0.00 10 1002.9
20200127141835 83 217 1.0 6.0 0.00 0.00 0.00 10 1003.1
20200127140935 83 200 1.0 7.0 0.00 0.00 0.00 10 1003.6
20200127140035 84 192 3.0 7.0 0.00 0.00 0.00 10 1003.3
20200127135135 84 206 2.0 7.0 0.00 0.00 0.00 10 1003.4
20200127134235 85 214 0.0 7.0 0.00 0.00 0.00 10 1003.7